Location: Unspecified
(43.4354°N, 0.0000°E)
Time: 13:01:05
(UTC+00:00)

S-56A Canister/Altair - Pass Details

Date: 26 June 2019
Orbit: 632 x 2500 km, 38.9° (Epoch: 17 July)

Event Time Altitude Azimuth Distance (km) Brightness Sun altitude
Rises 17:30:38 0° 269° (W) 4,925 13.0 21.5°
Reaches altitude 10° 17:34:25 10° 266° (W) 3,629 12.7 20.8°
Maximum altitude 17:42:54 59° 191° (S) 1,228 8.8 19.3°
Drops below altitude 10° 17:48:35 10° 112° (ESE) 2,457 9.6 18.3°
Sets 17:50:43 0° 108° (ESE) 3,241 10.1 17.9°
